• In Moldova, Republic
  • List of Countries
  • For 7 days
  • Water Temperature
  • Satellite Maps
  • Weather Map
  • Weather Widgets
  • user-avatar
    Login

    Hourly Weather Perth

    Today, 27 March, Monday

    Time Temperature Precipitation Wind Pressure Humidity
    00:00 +13°C° 0 mm 2 mps 763 mmHg 77%
    01:00 +13°C° 0 mm 2 mps 764 mmHg 79%
    02:00 +12°C° 0 mm 2 mps 764 mmHg 79%
    03:00 +12°C° 0 mm 2 mps 764 mmHg 81%
    04:00 +10°C° 0 mm 2 mps 764 mmHg 83%
    05:00 +11°C° 0 mm 1 mps 764 mmHg 84%
    06:00 +13°C° 0 mm 1 mps 765 mmHg 77%
    07:00 +14°C° 0 mm 1 mps 765 mmHg 71%
    08:00 +18°C° 0 mm 1 mps 765 mmHg 62%
    09:00 +20°C° 0 mm 1 mps 765 mmHg 53%
    10:00 +22°C° 0 mm 1 mps 765 mmHg 45%
    11:00 +24°C° 0 mm 1 mps 764 mmHg 36%
    12:00 +25°C° 0 mm 2 mps 764 mmHg 34%
    13:00 +26°C° 0 mm 2 mps 763 mmHg 32%
    14:00 +27°C° 0 mm 3 mps 763 mmHg 30%
    15:00 +26°C° 0 mm 3 mps 763 mmHg 34%
    16:00 +25°C° 0 mm 4 mps 762 mmHg 38%
    17:00 +25°C° 0 mm 4 mps 762 mmHg 41%
    18:00 +21°C° 0 mm 4 mps 762 mmHg 51%
    19:00 +19°C° 0 mm 4 mps 762 mmHg 61%
    20:00 +17°C° 0 mm 4 mps 762 mmHg 71%
    21:00 +16°C° 0 mm 3 mps 763 mmHg 75%
    22:00 +16°C° 0 mm 3 mps 763 mmHg 78%
    23:00 +14°C° 0 mm 3 mps 763 mmHg 81%

    Tomorrow, 28 March, Tuesday

    Time Temperature Precipitation Wind Pressure Humidity
    00:00 +14°C° 0 mm 3 mps 763 mmHg 83%
    01:00 +13°C° 0 mm 3 mps 763 mmHg 84%
    02:00 +13°C° 0 mm 3 mps 763 mmHg 86%
    03:00 +14°C° 0 mm 2 mps 762 mmHg 86%
    04:00 +13°C° 0 mm 2 mps 762 mmHg 87%
    05:00 +13°C° 0 mm 2 mps 762 mmHg 88%
    06:00 +14°C° 0 mm 2 mps 762 mmHg 82%
    07:00 +15°C° 0 mm 2 mps 762 mmHg 77%
    08:00 +17°C° 0 mm 2 mps 763 mmHg 71%
    09:00 +19°C° 0 mm 2 mps 762 mmHg 62%
    10:00 +23°C° 0 mm 2 mps 762 mmHg 53%
    11:00 +25°C° 0 mm 3 mps 762 mmHg 43%
    12:00 +26°C° 0 mm 3 mps 762 mmHg 42%
    13:00 +27°C° 0 mm 4 mps 761 mmHg 41%
    14:00 +27°C° 0 mm 4 mps 761 mmHg 40%
    15:00 +26°C° 0 mm 5 mps 761 mmHg 44%
    16:00 +26°C° 0 mm 5 mps 761 mmHg 48%
    17:00 +25°C° 0 mm 5 mps 761 mmHg 53%
    18:00 +22°C° 0 mm 5 mps 761 mmHg 57%
    19:00 +20°C° 0 mm 5 mps 762 mmHg 61%
    20:00 +19°C° 0 mm 5 mps 763 mmHg 65%
    21:00 +17°C° 0 mm 5 mps 763 mmHg 66%
    22:00 +17°C° 0 mm 5 mps 763 mmHg 67%
    23:00 +16°C° 0 mm 5 mps 763 mmHg 68%

    Day after tomorrow, 29 March, Wednesday

    Time Temperature Precipitation Wind Pressure Humidity
    00:00 +17°C° 0 mm 4 mps 763 mmHg 72%
    01:00 +15°C° 0 mm 4 mps 764 mmHg 75%
    02:00 +15°C° 0 mm 4 mps 764 mmHg 78%
    03:00 +15°C° 0 mm 5 mps 764 mmHg 80%
    04:00 +14°C° 0 mm 5 mps 764 mmHg 81%
    05:00 +14°C° 0 mm 5 mps 764 mmHg 83%
    06:00 +15°C° 0 mm 5 mps 765 mmHg 79%
    07:00 +15°C° 0 mm 6 mps 765 mmHg 75%
    08:00 +16°C° 0 mm 6 mps 766 mmHg 71%
    09:00 +17°C° 0 mm 6 mps 766 mmHg 62%
    10:00 +20°C° 0 mm 5 mps 766 mmHg 54%
    11:00 +22°C° 0 mm 5 mps 766 mmHg 46%
    12:00 +23°C° 0 mm 5 mps 765 mmHg 42%
    13:00 +25°C° 0 mm 5 mps 764 mmHg 37%
    14:00 +26°C° 0 mm 4 mps 764 mmHg 33%
    15:00 +26°C° 0 mm 4 mps 764 mmHg 33%
    16:00 +26°C° 0 mm 4 mps 763 mmHg 32%
    17:00 +26°C° 0 mm 4 mps 763 mmHg 31%
    18:00 +23°C° 0 mm 4 mps 764 mmHg 34%
    19:00 +21°C° 0 mm 4 mps 764 mmHg 36%
    20:00 +20°C° 0 mm 4 mps 764 mmHg 38%
    21:00 +19°C° 0 mm 4 mps 765 mmHg 40%
    22:00 +19°C° 0 mm 5 mps 765 mmHg 41%
    23:00 +19°C° 0 mm 5 mps 765 mmHg 42%

    30 March, Thursday

    Time Temperature Precipitation Wind Pressure Humidity
    00:00 +19°C° 0 mm 5 mps 765 mmHg 43%
    01:00 +17°C° 0 mm 6 mps 764 mmHg 45%
    02:00 +17°C° 0 mm 6 mps 764 mmHg 46%
    03:00 +17°C° 0 mm 5 mps 764 mmHg 48%
    04:00 +16°C° 0 mm 5 mps 764 mmHg 50%
    05:00 +16°C° 0 mm 5 mps 764 mmHg 51%
    06:00 +16°C° 0 mm 5 mps 764 mmHg 50%
    07:00 +17°C° 0 mm 5 mps 765 mmHg 49%
    08:00 +17°C° 0 mm 5 mps 765 mmHg 48%
    09:00 +21°C° 0 mm 4 mps 765 mmHg 43%
    10:00 +24°C° 0 mm 3 mps 765 mmHg 38%
    11:00 +27°C° 0 mm 3 mps 765 mmHg 33%
    12:00 +28°C° 0 mm 2 mps 764 mmHg 30%
    13:00 +30°C° 0 mm 2 mps 763 mmHg 28%
    14:00 +32°C° 0 mm 2 mps 763 mmHg 25%
    15:00 +31°C° 0 mm 3 mps 763 mmHg 27%
    16:00 +30°C° 0 mm 3 mps 763 mmHg 28%
    17:00 +29°C° 0 mm 4 mps 762 mmHg 30%
    18:00 +27°C° 0 mm 4 mps 763 mmHg 38%
    19:00 +24°C° 0 mm 3 mps 763 mmHg 45%
    20:00 +21°C° 0 mm 3 mps 764 mmHg 52%
    21:00 +20°C° 0 mm 3 mps 764 mmHg 51%
    22:00 +20°C° 0 mm 3 mps 764 mmHg 50%
    23:00 +19°C° 0 mm 3 mps 764 mmHg 49%

    31 March, Friday

    Time Temperature Precipitation Wind Pressure Humidity
    00:00 +19°C° 0 mm 3 mps 764 mmHg 49%
    01:00 +19°C° 0 mm 3 mps 764 mmHg 49%
    02:00 +18°C° 0 mm 3 mps 763 mmHg 49%
    03:00 +18°C° 0 mm 3 mps 764 mmHg 50%
    04:00 +18°C° 0 mm 3 mps 764 mmHg 51%
    05:00 +18°C° 0 mm 3 mps 764 mmHg 52%
    06:00 +18°C° 0 mm 3 mps 764 mmHg 49%
    07:00 +19°C° 0 mm 4 mps 765 mmHg 47%
    08:00 +20°C° 0 mm 4 mps 765 mmHg 44%
    09:00 +24°C° 0 mm 3 mps 765 mmHg 38%
    10:00 +27°C° 0 mm 3 mps 765 mmHg 33%
    11:00 +30°C° 0 mm 3 mps 765 mmHg 27%
    12:00 +31°C° 0 mm 3 mps 764 mmHg 25%
    13:00 +33°C° 0 mm 3 mps 764 mmHg 23%
    14:00 +34°C° 0 mm 4 mps 763 mmHg 21%
    15:00 +33°C° 0 mm 4 mps 763 mmHg 22%
    16:00 +33°C° 0 mm 4 mps 763 mmHg 23%
    17:00 +32°C° 0 mm 4 mps 763 mmHg 24%
    18:00 +29°C° 0 mm 4 mps 763 mmHg 26%
    19:00 +27°C° 0 mm 4 mps 764 mmHg 29%
    20:00 +25°C° 0 mm 4 mps 764 mmHg 32%
    21:00 +25°C° 0 mm 4 mps 764 mmHg 34%
    22:00 +23°C° 0 mm 5 mps 764 mmHg 36%
    23:00 +23°C° 0 mm 5 mps 765 mmHg 38%

    1 April, Saturday

    Time Temperature Precipitation Wind Pressure Humidity
    00:00 +22°C° 0 mm 6 mps 765 mmHg 43%
    01:00 +21°C° 0 mm 6 mps 765 mmHg 48%
    02:00 +21°C° 0 mm 6 mps 765 mmHg 53%
    03:00 +20°C° 0 mm 6 mps 765 mmHg 54%
    04:00 +20°C° 0 mm 6 mps 765 mmHg 55%
    05:00 +19°C° 0 mm 6 mps 765 mmHg 55%
    06:00 +20°C° 0 mm 6 mps 765 mmHg 54%
    07:00 +20°C° 0 mm 5 mps 766 mmHg 53%
    08:00 +20°C° 0 mm 5 mps 766 mmHg 52%
    09:00 +23°C° 0 mm 5 mps 766 mmHg 44%
    10:00 +26°C° 0 mm 4 mps 766 mmHg 36%
    11:00 +29°C° 0 mm 4 mps 765 mmHg 28%
    12:00 +30°C° 0 mm 3 mps 765 mmHg 26%
    13:00 +31°C° 0 mm 3 mps 764 mmHg 23%
    14:00 +34°C° 0 mm 2 mps 763 mmHg 20%
    15:00 +33°C° 0 mm 3 mps 763 mmHg 20%
    16:00 +33°C° 0 mm 3 mps 763 mmHg 21%
    17:00 +31°C° 0 mm 3 mps 763 mmHg 21%
    18:00 +29°C° 0 mm 3 mps 764 mmHg 24%
    19:00 +27°C° 0 mm 3 mps 764 mmHg 27%
    20:00 +24°C° 0 mm 3 mps 764 mmHg 30%
    21:00 +23°C° 0 mm 4 mps 764 mmHg 31%
    22:00 +23°C° 0 mm 4 mps 764 mmHg 32%
    23:00 +23°C° 0 mm 4 mps 764 mmHg 33%
    Show more